EDT,Max TemperatureF,Mean TemperatureF,Min TemperatureF,Max Dew PointF,MeanDew PointF,Min DewpointF,Max Humidity, Mean Humidity, Min Humidity, Max Sea Level PressureIn, Mean Sea Level PressureIn, Min Sea Level PressureIn, Max VisibilityMiles, Mean VisibilityMiles, Min VisibilityMiles, Max Wind SpeedMPH, Mean Wind SpeedMPH, Max Gust SpeedMPH,PrecipitationIn, CloudCover, Events, WindDirDegrees
2013-3-1,39,36,33,29,26,21,73,63,53,29.89,29.81,29.70,10,10,10,13,7,20,0.00,8,,327
2013-3-2,36,33,30,23,21,19,69,62,54,29.89,29.86,29.81,10,10,9,12,8,,0.00,8,Snow,341
2013-3-3,34,30,27,21,18,16,78,60,54,29.89,29.85,29.80,10,10,8,13,9,20,0.00,8,Snow,309
2013-3-4,34,30,27,20,17,14,64,58,52,30.05,29.98,29.90,10,10,10,16,9,24,0.00,8,,296
2013-3-5,41,34,28,25,23,19,82,66,51,30.10,30.02,29.91,10,10,10,9,4,,0.00,4,,5
2013-3-6,44,38,33,29,27,25,72,63,53,30.06,29.93,29.83,10,10,10,20,9,28,0.00,7,,31
2013-3-7,44,40,33,27,24,21,67,55,45,30.19,30.13,30.06,10,10,10,18,11,24,0.00,7,,2
2013-3-8,46,38,28,27,22,19,81,57,44,30.35,30.24,30.18,10,10,10,23,11,34,0.00,5,,348
2013-3-9,57,40,23,26,23,20,92,62,24,30.39,30.33,30.27,10,10,10,10,3,,0.00,0,,357
2013-3-10,61,43,25,29,25,17,92,53,24,30.32,30.25,30.18,10,10,8,14,3,18,0.00,1,,169
2013-3-11,55,47,39,47,38,28,81,65,47,30.19,30.07,29.88,10,10,8,17,7,25,0.00,3,Rain,176
2013-3-12,55,48,41,52,43,28,94,79,58,29.96,29.82,29.76,10,7,1,17,10,32,0.59,8,Rain,263
2013-3-13,45,36,28,28,25,17,92,65,37,30.01,29.93,29.86,10,9,2,17,6,36,0.00,5,Snow,271
2013-3-14,39,32,26,25,15,10,93,52,32,30.09,30.03,29.99,10,9,0,18,10,30,0.01,5,Fog-Snow,289
2013-3-15,48,34,21,30,23,13,85,57,44,30.08,29.91,29.76,10,10,10,12,6,25,0.00,5,,271
2013-3-16,39,34,28,30,29,22,100,86,57,29.96,29.82,29.74,10,4,0,9,4,,0.17,8,Fog-Rain-Snow,37
2013-3-17,37,32,28,29,25,19,100,77,48,30.31,30.11,29.95,10,8,2,9,2,,0.00,6,,1
2013-3-18,34,28,25,30,24,15,100,81,52,30.35,30.14,29.93,10,5,0,13,3,24,0.25,6,Fog-Rain-Snow,128
2013-3-19,50,41,32,34,29,16,100,81,28,29.93,29.81,29.71,10,5,1,18,2,28,0.08,7,Rain-Snow,255
2013-3-20,44,36,30,21,18,15,61,49,36,29.94,29.88,29.81,10,10,10,16,7,23,0.00,4,,273
2013-3-21,34,27,21,22,14,9,85,56,38,29.86,29.81,29.75,10,10,10,13,5,21,0.00,5,,294
2013-3-22,39,32,24,23,20,17,88,67,50,29.99,29.88,29.81,10,8,2,17,6,23,0.00,7,Snow,275
2013-3-23,46,36,27,22,20,18,81,53,37,30.02,29.98,29.94,10,10,10,14,7,21,0.00,4,,298
2013-3-24,45,35,25,23,21,18,85,55,34,30.01,29.86,29.67,10,10,10,9,3,,0.00,2,,41
2013-3-25,39,36,32,34,31,22,100,87,50,29.69,29.59,29.55,10,4,0,8,5,,0.26,8,Fog-Rain-Snow,21
2013-3-26,50,38,30,37,30,27,96,71,46,29.96,29.83,29.70,10,9,3,18,2,32,0.07,7,Rain,300
2013-3-27,48,42,36,29,26,25,70,57,41,30.09,30.01,29.95,10,10,8,18,5,26,0.00,5,,297
2013-3-28,46,41,36,30,27,23,76,57,41,30.22,30.12,30.05,10,10,10,13,4,17,0.00,8,,318
2013-3-29,52,44,32,32,29,24,88,58,37,30.23,30.19,30.14,10,10,2,10,6,17,0.00,7,,305
2013-3-30,57,41,25,31,24,16,92,61,21,30.24,30.17,30.10,10,10,8,8,1,16,0.00,0,,320
2013-3-31,48,37,28,45,39,24,100,90,66,30.12,29.84,29.73,10,4,1,16,1,20,0.33,6,Rain,193